{"data":{"norad_id":64720,"epoch":"2026-05-25T05:12:23.792256Z","epoch_age_seconds":66496,"freshness":"FRESH","line1":"1 64720U 25142AA  26145.21694204  .00003220  00000+0  27751-3 0  9990","line2":"2 64720  70.0000 121.5095 0003936 265.7680  94.3029 14.98337479 51116","mean_motion":14.98337479,"eccentricity":0.0003936,"inclination_deg":70,"raan_deg":121.5095,"arg_perigee_deg":265.768,"mean_anomaly_deg":94.3029,"bstar":0.00027751,"rev_number":5111,"period_min":96.106519404498,"perigee_km":569.29717603141,"apogee_km":574.76834966872,"semimajor_km":6950.1697628501,"source":"CELESTRAK","updated_at":"2026-05-25T13:38:20.518110Z"}}